Вернуться в каталог

STARLINK-34987

АктивенСвязьSSO
NORAD 65255·PAYLOAD·🇺🇸 United States

Запущен Aug 18, 2025 с Vandenberg Space Force Base

Loading…

Ближайшие Пролёты (ближайшие 24 часа)

TLE

СвежийSource: CelesTrak SupGP

Эпоха: Sep 15, 2026, 02:33 UTC

1 65255C 25179W   26258.10673611  .00023596  00000+0  73236-3 0  2581
2 65255  97.2833 297.4985 0000929  86.7570 351.2695 15.33432271    17

Отслеживайте STARLINK-34987 в реальном времени с AllMySat

Download on the App Store